RH
9 7 5 4 5 4 3 3 3 3 2 2 2 2 2 2 3 3 4 5 5 6 7 8 9 9 10 8 12 10 11 16 44 64 91 100 99 93 70 63 68 92 100 100 100
10 7 6 4 5 4 2 2 2 2 2 2 2 2 2 2 3 4 3 4 5 6 6 8 8 9 11 10 8 11 12 13 22 44 71 98 98 98 84 75 80 85 100 100 100
10 8 7 4 4 3 2 2 2 2 2 2 2 2 2 2 2 3 4 4 4 6 6 7 8 8 10 12 11 10 12 16 15 26 57 78 100 90 90 72 79 91 100 100 100
10 8 7 6 4 3 2 2 2 2 2 2 2 2 2 2 2 3 4 4 4 5 7 7 8 9 10 14 12 11 14 14 16 16 32 60 81 94 98 78 70 80 100 100 100
13 9 8 6 4 3 2 2 2 2 2 2 2 1 1 1 2 2 4 4 4 5 6 7 7 10 10 13 15 14 13 13 15 16 20 38 63 94 100 89 68 76 100 100 100
20 10 7 5 4 3 2 3 2 2 2 2 2 2 2 2 2 2 3 4 4 5 6 8 7 9 10 12 14 15 15 14 13 19 23 37 60 82 100 100 77 84 83 100 100
29 15 10 6 6 4 2 2 2 2 2 2 2 2 2 1 2 2 2 3 5 5 6 8 8 8 9 11 12 14 16 14 13 18 23 34 49 74 100 100 91 90 89 100 100
26 21 10 6 6 4 2 2 2 2 2 2 2 2 2 2 2 2 2 3 5 6 6 7 8 9 9 9 10 13 17 15 15 17 19 19 24 83 89 100 100 89 99 92 100
25 26 23 9 6 4 3 2 2 2 2 2 2 2 2 2 2 2 2 3 5 6 5 7 8 9 9 10 9 12 17 16 19 16 20 21 18 56 70 93 100 100 100 97 90
27 34 32 16 8 4 3 2 2 2 2 2 2 2 2 2 2 2 2 4 4 7 6 7 7 9 10 10 12 16 18 20 21 18 21 21 26 22 68 89 99 100 100 100 94
25 37 37 25 9 4 4 3 3 2 2 2 2 2 2 2 2 2 2 2 4 5 8 8 7 8 13 15 16 19 20 21 22 28 18 24 23 24 34 87 91 99 100 100 98
22 45 45 31 12 5 4 3 3 2 2 2 2 2 2 2 2 2 2 2 3 5 9 8 8 9 11 12 16 18 20 19 20 32 22 23 22 28 33 57 81 83 95 100 98
22 45 42 36 20 7 4 3 3 2 3 2 2 2 2 2 2 2 2 2 4 6 7 8 9 9 11 12 14 20 20 21 22 22 28 27 26 29 29 55 46 78 88 95 100
23 48 45 43 25 10 5 4 4 3 3 2 3 3 2 2 2 2 2 3 4 5 10 10 9 11 11 14 16 19 19 19 21 21 32 34 35 32 32 52 36 39 68 99 97
27 51 49 46 32 17 6 5 5 3 3 3 3 3 2 2 2 2 3 3 5 8 12 10 11 13 11 15 17 20 19 18 19 22 23 37 30 38 49 31 52 49 53 62 92
33 55 45 48 33 33 7 6 5 4 3 3 3 3 3 3 2 2 3 4 6 8 14 12 13 12 12 12 16 18 19 19 19 21 22 23 30 51 57 62 49 59 32 24 52
28 53 51 48 36 38 15 5 6 7 4 3 3 3 3 3 3 2 3 5 6 8 12 13 13 12 13 13 14 18 19 20 21 21 25 23 22 100 49 62 45 54 53 27 18
32 53 55 47 38 36 36 6 6 10 5 3 3 3 4 4 4 3 4 4 6 7 11 13 10 11 13 14 17 20 21 20 23 23 25 27 27 76 64 47 45 34 39 34 17
35 53 52 44 46 42 44 13 8 8 12 4 4 3 4 4 6 4 5 6 7 8 10 12 12 16 16 14 17 19 20 22 24 23 23 26 25 41 60 58 41 37 32 38 49
43 54 50 45 49 44 44 25 10 9 12 7 4 4 4 5 5 6 5 6 10 11 14 14 15 18 20 17 20 20 22 22 23 25 23 24 25 43 54 63 41 40 54 44 40
46 52 52 46 46 51 52 39 13 12 13 8 5 4 4 5 7 8 8 7 9 12 17 19 21 22 25 24 22 25 24 23 25 27 26 24 33 48 64 59 56 38 38 45 45
48 51 48 45 46 51 54 63 11 10 11 10 5 4 5 6 6 9 9 10 9 10 14 18 25 28 30 25 23 24 24 23 22 27 28 26 27 89 86 70 64 58 39 41 37
52 47 42 41 50 48 48 57 28 13 11 11 6 5 5 5 7 8 11 10 12 9 10 13 20 26 30 32 34 33 37 31 30 30 31 30 32 29 47 98 61 63 58 39 26
58 50 45 36 45 52 46 54 50 13 11 9 6 5 5 6 6 7 9 11 12 14 11 11 11 14 18 24 30 33 32 34 31 30 35 36 40 37 30 26 51 49 58 60 45
63 47 44 42 49 52 45 65 66 15 11 9 6 5 5 6 6 7 8 14 14 16 17 15 15 13 11 13 17 23 25 22 23 30 26 39 33 31 31 30 27 26 41 56 89
53 50 41 43 47 50 44 56 77 34 10 11 5 4 4 6 7 7 8 9 16 18 19 20 18 17 16 15 12 13 15 20 22 21 25 26 27 27 25 29 28 28 27 26 40
49 48 45 50 50 57 43 53 60 67 14 12 7 5 4 5 7 8 8 10 13 20 23 22 24 24 22 22 19 20 16 15 15 17 19 21 22 21 23 25 25 25 27 28 26
Wind_Speed
93 94 93 90 86 81 74 65 58 55 52 51 47 46 44 47 52 60 67 75 80 85 91 97 101 97 97 93 99 102 101 99 105 105 104 98 91 85 80 74 70 68 65 63 60
95 96 96 93 91 83 77 69 59 50 52 49 47 45 44 47 52 59 69 74 78 83 87 94 100 102 97 98 96 95 98 94 99 106 109 101 97 89 83 78 75 73 69 67 63
94 97 98 98 93 87 83 70 64 54 50 47 44 45 42 45 53 61 66 71 76 79 85 91 97 101 100 99 97 96 94 96 101 107 112 108 101 95 87 83 76 74 69 70 66
94 96 98 100 97 92 84 73 67 58 54 46 38 37 37 39 48 60 66 70 74 78 80 89 93 98 101 98 98 95 92 97 103 105 113 113 103 95 90 85 78 76 71 68 69
94 98 99 101 101 93 85 83 70 62 56 50 39 32 33 37 39 49 61 70 74 76 78 85 91 95 101 102 99 98 95 99 104 105 107 110 107 98 94 87 83 78 75 73 66
96 96 98 102 104 98 87 84 74 62 56 51 44 33 30 35 38 43 55 68 73 76 79 82 87 95 98 103 103 99 99 102 105 105 104 107 108 104 96 89 86 82 82 76 75
100 101 102 102 107 103 94 84 77 63 57 53 43 32 27 29 36 39 50 61 70 74 78 80 86 91 96 101 103 102 102 104 101 105 106 108 110 104 100 94 90 87 86 82 79
100 105 104 107 107 105 97 91 80 67 59 53 43 32 24 21 26 36 46 57 66 75 78 81 83 88 91 95 97 102 104 106 104 107 109 107 105 107 108 98 93 90 90 88 82
99 104 108 109 110 105 101 95 86 71 62 56 46 35 27 22 18 29 40 52 60 70 75 79 82 84 87 90 92 94 97 100 104 108 109 107 103 109 111 104 98 95 94 92 90
97 103 107 109 111 107 100 98 87 75 65 59 51 40 30 23 12 20 35 47 55 65 72 77 80 79 84 83 80 84 92 99 105 107 109 107 106 104 110 108 104 100 98 94 91
96 101 107 110 112 107 102 100 89 75 67 62 56 43 32 23 11 13 28 39 49 58 66 73 76 70 75 81 81 87 95 102 104 107 110 109 108 104 106 112 110 106 101 97 93
95 100 106 108 108 108 103 101 94 76 68 62 57 47 33 25 10 2 16 29 38 49 64 69 71 73 76 81 81 84 93 99 104 110 108 109 107 106 105 110 114 112 106 102 96
94 99 105 109 108 104 103 103 100 83 69 62 57 50 37 24 11 2 12 20 34 47 59 63 71 68 72 74 77 83 90 98 103 106 109 109 109 106 106 107 114 115 110 105 97
90 97 104 111 110 102 101 102 102 90 72 61 57 52 39 26 10 8 6 20 28 41 57 60 65 65 71 72 73 79 88 95 100 104 106 110 108 106 107 109 110 114 114 109 104
88 93 103 109 113 104 99 102 102 96 77 65 56 52 41 28 13 11 13 19 27 36 50 53 57 62 67 71 73 75 83 90 96 101 106 110 107 106 108 107 106 109 116 115 108
86 91 98 105 107 110 99 103 101 98 81 66 57 52 45 33 18 10 16 18 26 37 45 50 55 63 65 71 70 74 77 82 89 98 102 105 104 109 108 108 108 111 113 112 115
82 88 95 102 104 107 101 94 101 96 85 69 57 50 45 36 23 15 11 19 23 31 39 45 50 56 61 65 67 68 71 77 84 91 97 101 101 107 109 107 108 109 112 110 108
79 84 92 97 102 105 103 99 100 99 91 75 59 50 44 39 27 12 14 11 16 24 33 38 41 48 54 60 64 66 69 72 80 86 94 100 98 104 109 107 110 108 110 110 105
77 80 87 93 99 106 110 99 96 99 93 75 60 51 44 38 29 14 12 15 14 14 21 26 28 38 51 57 62 63 66 70 76 83 89 95 96 100 107 108 108 107 106 109 108
77 80 85 92 96 102 106 101 95 96 90 78 60 49 41 37 32 20 10 10 12 13 10 14 21 28 42 51 54 59 65 67 71 78 82 86 92 98 102 108 105 104 104 106 106
75 77 82 89 93 98 107 108 94 95 89 76 58 44 39 32 28 22 14 1 8 14 15 15 19 22 29 39 50 55 59 62 68 74 78 80 88 95 101 105 107 103 104 105 107
73 75 80 85 91 95 102 105 93 93 86 73 59 45 33 30 27 22 13 7 3 13 18 21 23 20 27 39 49 54 57 59 62 67 75 77 80 101 103 103 106 106 104 103 103
72 73 76 81 89 94 99 104 96 91 86 73 56 46 34 26 22 19 15 8 4 5 15 23 25 28 33 35 37 42 48 53 57 63 68 74 76 96 96 109 103 104 104 100 93
71 73 76 81 87 93 97 103 96 97 87 76 57 43 34 26 21 18 14 9 6 6 7 12 23 29 37 41 45 48 55 59 64 63 63 66 80 85 94 92 97 102 99 103 93
69 70 74 80 86 91 95 104 102 95 89 73 62 43 33 26 21 17 16 11 7 6 8 11 15 22 29 36 43 49 55 63 63 63 60 65 69 78 81 84 91 91 94 98 106
66 69 72 77 83 89 93 98 101 91 88 78 60 50 33 25 22 21 17 13 9 7 9 11 13 16 22 27 33 39 46 52 56 58 60 69 67 74 71 75 77 80 86 86 89
63 66 71 76 81 84 87 92 99 98 84 75 63 54 39 25 20 21 19 17 13 9 9 11 13 15 18 20 25 31 36 41 48 52 55 56 65 65 67 68 71 71 73 77 81
Wind_Direction
346 348 353 355 359 355 347 338 328 320 315 306 295 280 266 252 240 232 225 223 220 219 219 220 220 218 216 216 216 215 216 215 218 221 223 223 222 222 222 222 221 221 225 226 227
344 348 352 355 358 356 353 343 335 325 316 309 298 285 269 252 240 232 226 222 221 218 218 220 219 219 214 216 218 216 215 213 217 219 222 222 223 221 221 220 220 220 225 225 226
345 348 351 353 358 357 352 346 340 332 324 315 302 289 273 255 240 233 227 223 220 218 218 218 219 219 217 214 217 218 215 214 216 219 221 220 222 223 221 221 219 220 226 229 226
346 348 350 354 357 358 355 351 344 337 332 323 313 295 280 262 243 234 227 223 220 216 215 219 218 219 217 214 215 217 217 214 216 219 221 222 220 221 221 221 219 218 223 230 230
347 348 351 353 355 358 356 356 348 340 338 334 329 307 283 268 250 236 228 224 220 216 213 216 216 216 218 215 213 213 215 217 216 218 221 220 220 220 220 220 220 218 221 228 229
347 348 350 354 353 357 356 356 351 345 343 342 336 315 285 267 253 239 227 224 219 217 213 214 214 214 216 216 214 213 213 216 217 217 219 219 218 218 219 220 220 220 219 225 229
345 348 351 352 353 355 358 358 354 351 348 348 339 321 295 271 252 240 228 222 219 214 214 213 215 213 214 216 215 213 213 216 217 218 218 219 218 217 218 218 220 221 222 222 229
345 347 352 352 354 355 358 1 357 355 353 352 345 333 313 286 256 236 227 224 219 214 211 211 213 213 214 216 215 212 212 214 216 218 219 219 218 216 218 216 219 222 224 222 224
346 348 352 351 354 355 358 1 0 357 357 355 353 345 331 310 270 239 226 221 220 216 211 210 212 212 212 215 215 212 211 214 217 218 219 220 219 218 219 216 217 221 225 226 225
345 349 351 352 354 355 357 0 2 358 358 358 359 353 342 330 296 242 226 216 216 215 213 208 212 210 211 215 214 213 212 212 217 219 220 220 221 220 219 218 217 220 224 226 228
345 349 350 353 353 355 357 359 4 359 358 1 2 358 354 344 326 241 230 214 212 210 214 207 212 207 209 213 211 210 209 210 213 218 220 220 220 221 221 219 219 220 224 226 227
345 348 350 353 355 354 358 359 5 2 359 5 4 2 1 352 352 267 231 213 208 209 212 208 211 207 209 210 210 209 209 212 213 216 219 221 221 221 222 222 221 222 222 225 226
345 349 350 351 357 357 357 358 4 6 2 5 7 6 6 1 15 88 210 195 197 207 211 208 210 206 209 212 211 209 209 211 213 216 218 221 222 222 223 225 224 222 224 225 227
346 349 349 351 356 1 357 358 2 5 4 4 9 8 9 6 22 92 160 180 185 202 208 207 209 205 207 210 212 211 211 212 214 215 218 221 222 224 224 224 227 227 224 225 226
345 349 350 351 353 1 357 359 1 4 5 5 10 11 12 10 22 97 134 158 173 191 205 208 208 206 206 208 213 212 214 214 214 216 218 222 221 224 226 225 228 230 229 225 226
344 348 351 350 355 1 2 357 359 2 4 7 6 13 15 18 21 93 122 144 172 188 199 209 207 206 207 209 212 213 214 216 217 217 219 222 223 225 226 228 227 230 233 232 227
343 347 350 351 353 355 5 357 357 1 5 3 7 11 17 19 22 65 110 154 170 187 196 209 208 209 207 210 213 214 216 217 219 220 221 223 223 225 229 228 231 231 236 236 235
341 347 349 351 353 355 3 1 357 360 4 1 3 6 15 20 22 53 94 120 170 189 197 209 212 208 206 210 213 214 216 218 220 221 223 225 224 224 231 231 232 233 235 239 240
340 346 348 350 354 355 359 4 357 355 358 2 358 3 6 20 25 35 113 115 138 174 199 210 215 206 209 210 212 216 217 217 220 223 224 226 227 226 230 234 234 237 237 239 241
338 343 347 351 354 356 357 6 358 355 356 359 357 357 3 6 20 30 27 131 134 148 183 216 216 210 209 211 213 216 219 219 221 224 227 227 229 228 230 234 237 239 240 242 242
336 341 346 350 355 355 356 2 0 355 356 356 356 356 354 4 6 20 27 60 183 170 179 176 204 206 211 212 214 217 221 222 223 225 227 229 230 232 232 235 239 241 242 242 245
332 339 344 350 354 355 357 357 360 357 353 357 352 354 355 353 358 2 21 15 239 213 184 190 174 192 202 212 214 217 222 223 224 226 228 229 230 231 233 237 240 243 244 245 247
329 336 344 350 354 356 357 358 359 355 352 355 349 347 350 349 350 348 353 360 328 248 215 204 199 203 207 211 214 218 224 225 225 226 227 228 230 233 233 236 241 243 247 249 250
327 336 344 348 353 356 357 356 359 353 351 352 352 344 344 341 338 337 334 339 329 302 261 226 218 219 217 211 208 211 214 219 222 223 224 225 229 233 234 236 238 243 246 249 253
325 334 342 349 353 355 359 359 0 354 350 355 353 347 341 335 328 326 321 316 315 294 273 256 245 237 232 226 224 219 220 222 224 225 225 230 231 235 235 237 239 242 244 247 248
325 333 341 349 353 355 358 360 1 356 351 353 353 348 341 330 321 315 309 301 293 279 269 263 257 251 242 238 236 234 235 236 234 233 229 230 232 237 237 239 240 241 244 247 248
325 333 339 347 351 355 356 356 2 359 355 350 353 348 338 328 313 304 300 292 283 267 258 254 251 252 249 246 241 239 239 239 239 238 238 239 241 241 242 241 242 242 244 246 248